{"data":{"norad_id":55313,"epoch":"2026-05-25T03:28:05.270016Z","epoch_age_seconds":62237,"freshness":"FRESH","line1":"1 55313U 23010AW  26145.14450544  .00000356  00000+0  37610-4 0  9992","line2":"2 55313  69.9987 171.7182 0003689 267.0870  92.9867 14.98330237186095","mean_motion":14.98330237,"eccentricity":0.0003689,"inclination_deg":69.9987,"raan_deg":171.7182,"arg_perigee_deg":267.087,"mean_anomaly_deg":92.9867,"bstar":3.761e-5,"rev_number":18609,"period_min":96.106983923865,"perigee_km":569.49123215446,"apogee_km":574.61908392866,"semimajor_km":6950.1921580416,"source":"CELESTRAK","updated_at":"2026-05-25T13:38:17.757867Z"}}